IW3HBX-13 Weather Reports


Display with metric or nautical units.
time (UTC)temp
F
wind
direction
speed
MPH
gust
MPH
rain 1hr
in
rain 24hr
in
rain mn
in
humidity
%
barometer
mb
20260906013128 76 37 1.0 3.0 0.00 0.00 0.00 75 1020.4
20260906012129 76 351 1.0 2.0 0.00 0.00 0.00 77 1020.4
20260906011128 76 51 1.0 2.0 0.00 0.00 0.00 76 1020.3
20260906010130 76 67 2.0 4.0 0.00 0.00 0.00 77 1020.3
20260906005129 76 67 1.0 2.0 0.00 0.00 0.00 78 1020.5
20260906004129 76 63 2.0 4.0 0.00 0.00 0.00 80 1020.4
20260906003128 76 62 3.0 5.0 0.00 0.00 0.00 81 1020.4
20260906002130 76 64 2.0 4.0 0.00 0.00 0.00 83 1020.4
20260906001130 76 79 2.0 4.0 0.00 0.00 0.00 86 1020.4
20260906000128 76 75 1.0 2.0 0.00 0.00 0.00 86 1020.5
20260905235131 76 73 2.0 2.0 0.00 0.00 0.00 86 1020.4
20260905234129 76 65 2.0 4.0 0.00 0.00 0.00 86 1020.3
20260905233128 76 46 1.0 2.0 0.00 0.00 0.00 86 1020.3
20260905232128 77 49 0.0 0.0 0.00 0.00 0.00 86 1020.1
20260905231127 77 309 0.0 2.0 0.00 0.00 0.00 86 1020.2
20260905230131 77 350 2.0 3.0 0.00 0.00 0.00 85 1020.3
20260905225131 77 57 1.0 3.0 0.00 0.00 0.00 86 1020.2
20260905224130 77 18 2.0 3.0 0.00 0.00 0.00 86 1020.1
20260905223130 77 48 1.0 2.0 0.00 0.00 0.00 86 1020.2
20260905222129 78 59 1.0 2.0 0.00 0.00 0.00 88 1020.0
20260905221128 77 66 0.0 0.0 0.00 0.00 0.00 90 1019.9
20260905220131 78 66 1.0 2.0 0.00 0.00 0.00 88 1019.8
20260905215127 78 75 2.0 2.0 0.00 0.00 0.00 88 1019.7
20260905214128 78 79 1.0 3.0 0.00 0.00 0.00 88 1019.5
20260905213129 78 336 0.0 2.0 0.00 0.00 0.00 87 1019.5
20260905212131 78 37 0.0 0.0 0.00 0.00 0.00 86 1019.3
20260905211129 79 65 0.0 2.0 0.00 0.00 0.00 85 1019.2
20260905210128 79 61 0.0 0.0 0.00 0.00 0.00 85 1019.1
20260905205128 79 61 0.0 0.0 0.00 0.00 0.00 85 1019.1
20260905204129 80 61 0.0 0.0 0.00 0.00 0.00 82 1019.1
20260905203128 81 61 0.0 1.0 0.00 0.00 0.00 81 1019.1
20260905202129 81 58 2.0 2.0 0.00 0.00 0.00 80 1019.1
20260905201132 81 58 2.0 2.0 0.00 0.00 0.00 78 1019.0
20260905200128 82 58 1.0 2.0 0.00 0.00 0.00 78 1018.8
20260905195128 82 58 1.0 3.0 0.00 0.00 0.00 78 1018.8
20260905194130 82 59 2.0 2.0 0.00 0.00 0.00 77 1018.6
20260905193130 83 58 2.0 3.0 0.00 0.00 0.00 76 1018.4
20260905192131 83 59 2.0 3.0 0.00 0.00 0.00 75 1018.3
20260905191130 83 61 2.0 2.0 0.00 0.00 0.00 75 1018.2
20260905190129 83 59 1.0 3.0 0.00 0.00 0.00 75 1018.0
20260905185128 83 60 0.0 2.0 0.00 0.00 0.00 75 1017.9
20260905184128 84 60 2.0 2.0 0.00 0.00 0.00 73 1017.7
20260905183128 84 60 2.0 3.0 0.00 0.00 0.00 73 1017.6
20260905182129 84 62 2.0 3.0 0.00 0.00 0.00 73 1017.3
20260905181129 85 73 2.0 4.0 0.00 0.00 0.00 72 1017.3
20260905180131 85 64 2.0 3.0 0.00 0.00 0.00 72 1017.2
20260905175130 85 65 2.0 3.0 0.00 0.00 0.00 71 1017.1
20260905174128 86 65 2.0 3.0 0.00 0.00 0.00 70 1016.9
20260905173128 86 61 2.0 4.0 0.00 0.00 0.00 69 1016.8
20260905172131 87 59 1.0 3.0 0.00 0.00 0.00 67 1016.7
20260905171130 87 51 1.0 3.0 0.00 0.00 0.00 67 1016.6
20260905170130 87 59 1.0 2.0 0.00 0.00 0.00 66 1016.6
20260905165129 89 160 0.0 1.0 0.00 0.00 0.00 63 1016.4
20260905164129 88 91 2.0 3.0 0.00 0.00 0.00 64 1016.3
20260905163132 87 87 2.0 3.0 0.00 0.00 0.00 63 1016.3
20260905162129 90 198 0.0 1.0 0.00 0.00 0.00 43 1016.3
20260905161128 91 198 0.0 1.0 0.00 0.00 0.00 41 1016.2
20260905160129 90 182 0.0 0.0 0.00 0.00 0.00 42 1016.3
20260905155128 90 240 1.0 1.0 0.00 0.00 0.00 42 1016.2
20260905154129 92 229 1.0 2.0 0.00 0.00 0.00 42 1016.2
20260905153128 92 205 1.0 2.0 0.00 0.00 0.00 42 1016.2
20260905152127 88 203 2.0 4.0 0.00 0.00 0.00 46 1016.1
20260905151129 91 228 0.0 1.0 0.00 0.00 0.00 42 1016.0
20260905150128 91 181 1.0 2.0 0.00 0.00 0.00 43 1016.1
20260905145131 91 267 2.0 4.0 0.00 0.00 0.00 45 1016.1
20260905144128 91 227 3.0 5.0 0.00 0.00 0.00 45 1016.1
20260905143128 92 237 1.0 2.0 0.00 0.00 0.00 44 1016.2
20260905142132 90 15 1.0 2.0 0.00 0.00 0.00 43 1016.2
20260905141129 89 353 0.0 0.0 0.00 0.00 0.00 45 1016.2
20260905140129 88 344 3.0 4.0 0.00 0.00 0.00 46 1016.1
20260905135130 90 192 0.0 2.0 0.00 0.00 0.00 46 1016.3
20260905134127 90 254 1.0 2.0 0.00 0.00 0.00 49 1016.4
20260905133132 89 178 1.0 2.0 0.00 0.00 0.00 49 1016.4
20260905132131 89 206 0.0 2.0 0.00 0.00 0.00 50 1016.5
20260905131130 89 158 1.0 2.0 0.00 0.00 0.00 48 1016.5
20260905130132 88 289 1.0 3.0 0.00 0.00 0.00 50 1016.6
20260905125129 87 174 0.0 1.0 0.00 0.00 0.00 51 1016.8
20260905124128 88 224 1.0 1.0 0.00 0.00 0.00 51 1016.8
20260905123131 86 203 3.0 5.0 0.00 0.00 0.00 52 1017.0
20260905122132 87 266 3.0 7.0 0.00 0.00 0.00 52 1017.1
20260905121131 87 259 3.0 5.0 0.00 0.00 0.00 54 1017.3
20260905120130 86 56 2.0 3.0 0.00 0.00 0.00 57 1017.2
20260905115127 87 153 1.0 2.0 0.00 0.00 0.00 53 1017.3
20260905114128 86 275 1.0 3.0 0.00 0.00 0.00 56 1017.2
20260905113128 87 214 1.0 2.0 0.00 0.00 0.00 54 1017.3
20260905112127 86 69 2.0 2.0 0.00 0.00 0.00 59 1017.4
20260905111128 84 26 2.0 5.0 0.00 0.00 0.00 57 1017.3
20260905110129 84 69 1.0 2.0 0.00 0.00 0.00 59 1017.4
20260905105127 84 61 1.0 2.0 0.00 0.00 0.00 64 1017.4
20260905104129 84 58 0.0 2.0 0.00 0.00 0.00 61 1017.4
20260905103129 84 304 2.0 3.0 0.00 0.00 0.00 64 1017.6
20260905102131 84 355 3.0 3.0 0.00 0.00 0.00 66 1017.5
20260905101128 85 330 2.0 2.0 0.00 0.00 0.00 65 1017.5
20260905100128 84 292 1.0 2.0 0.00 0.00 0.00 66 1017.5
20260905095124 82 308 2.0 2.0 0.00 0.00 0.00 67 1017.5
20260905094218 82 312 1.0 2.0 0.00 0.00 0.00 69 1017.6
20260905094124 82 312 1.0 2.0 0.00 0.00 0.00 69 1017.6
20260905094000 82 312 2.0 3.0 0.00 0.00 0.00 70 1017.7
20260905093727 82 316 1.0 2.0 0.00 0.00 0.00 69 1017.7
20260905093122 83 330 3.0 4.0 0.00 0.00 0.00 69 1017.7
20260905092524 83 337 1.0 2.0 0.00 0.00 0.00 70 1017.6
20260905091323 84 277 0.0 0.0 0.00 0.00 0.00 66 1017.5
20260905090123 83 293 2.0 4.0 0.00 0.00 0.00 70 1017.6
20260905085527 82 58 2.0 2.0 0.00 0.00 0.00 71 1017.6
20260905084323 82 296 2.0 2.0 0.00 0.00 0.00 73 1017.4
20260905083724 82 64 0.0 2.0 0.00 0.00 0.00 72 1017.3
20260905083125 81 64 2.0 4.0 0.00 0.00 0.00 77 1017.2
20260905082524 83 61 2.0 3.0 0.00 0.00 0.00 75 1017.2
20260905081324 82 48 1.0 3.0 0.00 0.00 0.00 75 1017.1
20260905080123 81 79 2.0 2.0 0.00 0.00 0.00 76 1017.0
20260905075525 80 300 2.0 3.0 0.00 0.00 0.00 77 1017.1
20260905074326 82 48 0.0 0.0 0.00 0.00 0.00 71 1016.9
20260905073724 81 48 0.0 0.0 0.00 0.00 0.00 72 1016.9
20260905073122 81 58 0.0 2.0 0.00 0.00 0.00 71 1016.9
20260905072526 79 61 0.0 1.0 0.00 0.00 0.00 75 1016.7
20260905071926 78 57 2.0 4.0 0.00 0.00 0.00 77 1016.7
20260905071324 78 78 2.0 3.0 0.00 0.00 0.00 78 1016.8
20260905070727 78 74 1.0 3.0 0.00 0.00 0.00 78 1016.9
20260905070126 77 82 2.0 3.0 0.00 0.00 0.00 80 1016.8
20260905065526 77 350 2.0 3.0 0.00 0.00 0.00 80 1016.8
20260905064324 76 62 1.0 3.0 0.00 0.00 0.00 80 1016.8
20260905063727 75 5 2.0 4.0 0.00 0.00 0.00 82 1016.7
20260905063123 75 46 2.0 2.0 0.00 0.00 0.00 82 1016.8
20260905062522 76 33 2.0 3.0 0.00 0.00 0.00 81 1016.6
20260905061325 75 56 1.0 2.0 0.00 0.00 0.00 80 1016.6
20260905060726 74 350 2.0 4.0 0.00 0.00 0.00 82 1016.5
20260905060123 73 303 2.0 3.0 0.00 0.00 0.00 85 1016.5
20260905055523 72 301 2.0 2.0 0.00 0.00 0.00 87 1016.7
20260905054925 73 307 3.0 3.0 0.00 0.00 0.00 87 1016.7
20260905054322 73 313 0.0 2.0 0.00 0.00 0.00 86 1016.6
20260905053723 72 314 2.0 2.0 0.00 0.00 0.00 87 1016.5
20260905053122 73 315 1.0 2.0 0.00 0.00 0.00 86 1016.3
20260905052526 72 315 0.0 0.0 0.00 0.00 0.00 86 1016.2
20260905051322 71 66 2.0 3.0 0.00 0.00 0.00 90 1016.1
20260905050726 71 70 2.0 5.0 0.00 0.00 0.00 90 1016.2
20260905050126 71 76 1.0 3.0 0.00 0.00 0.00 91 1016.1
20260905045524 70 332 1.0 2.0 0.00 0.00 0.00 91 1016.2
20260905044322 70 67 2.0 3.0 0.00 0.00 0.00 92 1016.3
20260905043722 70 65 2.0 4.0 0.00 0.00 0.00 92 1016.1
20260905043123 70 48 1.0 2.0 0.00 0.00 0.00 94 1016.2
20260905042525 70 71 0.0 0.0 0.00 0.00 0.00 94 1016.3
20260905041924 70 71 1.0 2.0 0.00 0.00 0.00 94 1016.4
20260905041325 70 71 0.0 1.0 0.00 0.00 0.00 94 1016.4
20260905040122 70 71 0.0 2.0 0.00 0.00 0.00 92 1016.4
20260905035522 70 71 0.0 1.0 0.00 0.00 0.00 92 1016.3
20260905034323 70 55 1.0 2.0 0.00 0.00 0.00 92 1016.4
20260905033725 70 54 1.0 2.0 0.00 0.00 0.00 92 1016.4
20260905033124 70 55 0.0 2.0 0.00 0.00 0.00 92 1016.5
20260905032522 70 55 1.0 2.0 0.00 0.00 0.00 92 1016.5
20260905031322 70 60 0.0 0.0 0.00 0.00 0.00 92 1016.5
20260905030124 71 57 0.0 2.0 0.00 0.00 0.00 91 1016.4
20260905025525 71 60 2.0 3.0 0.00 0.00 0.00 91 1016.3
20260905025004 71 60 1.0 2.0 0.00 0.00 0.00 90 1016.3
20260905024925 71 60 1.0 2.0 0.00 0.00 0.00 90 1016.3
20260905024323 71 293 1.0 2.0 0.00 0.00 0.00 90 1016.2
20260905023722 71 47 1.0 2.0 0.00 0.00 0.00 90 1016.3
20260905023154 71 67 1.0 2.0 0.00 0.00 0.00 88 1016.3
20260905022526 71 64 0.0 2.0 0.00 0.00 0.00 88 1016.3
20260905021322 72 65 1.0 2.0 0.00 0.00 0.00 87 1016.3
20260905020726 72 65 1.0 2.0 0.00 0.00 0.00 87 1016.3
20260905020123 72 66 1.0 3.0 0.00 0.00 0.00 86 1016.2
20260905015526 72 66 1.0 2.0 0.00 0.00 0.00 86 1016.2
20260905014326 73 60 3.0 4.0 0.00 0.00 0.00 85 1016.4
20260905013726 73 67 3.0 4.0 0.00 0.00 0.00 83 1016.3